Change the Weather History Date:

Tuesday, December 4, 2012

  Actual Average (KRMG) Record (KRMG)
Temperature  
Mean Temperature 56 °F 45 °F  
Max Temperature 69 °F 56 °F 75 °F (2012)
Min Temperature 44 °F 34 °F 23 °F (2006)
Degree Days  
Heating Degree Days 8 20  
Month to date heating degree days 79  
Since 1 July heating degree days 686  
Growing Degree Days 6 (Base 50)    
Moisture  
Dew Point 49 °F    
Average Humidity 75    
Maximum Humidity 94    
Minimum Humidity 43    
Precipitation  
Precipitation 0.02 in 0.19 in 1.96 in (2005)
Month to date precipitation 0.75  
Year to date precipitation 48.29  
Sea Level Pressure  
Sea Level Pressure 30.23 in    
Wind  
Wind Speed 2 mph (SW)    
Max Wind Speed 14 mph    
Max Gust Speed 18 mph    
Visibility 9 miles    
Events Fog , Rain    
T = Trace of Precipitation, MM = Missing Value Source: NWS Daily Summary

Daily Weather History Graph

Daily Weather History Graph

Search for Another Location

Airport or City:

Trip Planner

Search our weather history database for the weather conditions in past years. The results will help you decide how hot, cold, wet, or windy it might be!

Date:

Astronomy

Dec. 04, 2012 Rise Set
Actual Time 6:34 AM CST 4:32 PM CST
Civil Twilight 6:06 AM CST 4:59 PM CST
Nautical Twilight 5:35 AM CST 5:31 PM CST
Astronomical Twilight 5:04 AM CST 6:01 PM CST
Moon 10:09 PM CST (12/4) 10:36 AM CST (12/4)
Length of Visible Light 10h 53m
Length of Day
9h 58m
Waning Gibbous, 69% of the Moon is Illuminated
Dec 4
Waning Gibbous
Dec 6
Last Quarter
Dec 13
New
Dec 19
First Quarter
Dec 28
Full

Hourly Weather History & Observations

Time (CST) Temp. Dew Point Humidity Pressure Visibility Wind Dir Wind Speed Gust Speed Precip Events Conditions
12:15 AM 46.4 °F 42.8 °F 87% 30.23 in 10.0 mi Calm Calm - N/A   Clear
12:35 AM 46.4 °F 42.8 °F 87% 30.23 in 10.0 mi Calm Calm - N/A   Scattered Clouds
12:55 AM 46.4 °F 42.8 °F 87% 30.23 in 10.0 mi Calm Calm - N/A   Overcast
1:15 AM 46.4 °F 44.6 °F 93% 30.24 in 10.0 mi Calm Calm - N/A   Overcast
1:35 AM 46.4 °F 44.6 °F 93% 30.24 in 10.0 mi Calm Calm - N/A   Mostly Cloudy
1:55 AM 46.4 °F 44.6 °F 93% 30.23 in 10.0 mi Calm Calm - N/A   Scattered Clouds
2:15 AM 44.6 °F 42.8 °F 93% 30.24 in 10.0 mi Calm Calm - N/A   Scattered Clouds
2:55 AM 46.4 °F 42.8 °F 87% 30.24 in 10.0 mi Calm Calm - N/A   Mostly Cloudy
3:15 AM 46.4 °F 42.8 °F 87% 30.24 in 10.0 mi Calm Calm - N/A   Mostly Cloudy
3:35 AM 44.6 °F 42.8 °F 93% 30.24 in 10.0 mi Calm Calm - N/A   Mostly Cloudy
3:55 AM 46.4 °F 42.8 °F 87% 30.24 in 10.0 mi Calm Calm - N/A   Mostly Cloudy
4:15 AM 44.6 °F 42.8 °F 93% 30.24 in 10.0 mi Calm Calm - N/A   Scattered Clouds
4:35 AM 46.4 °F 44.6 °F 93% 30.24 in 10.0 mi Calm Calm - N/A   Mostly Cloudy
4:55 AM 46.4 °F 42.8 °F 87% 30.25 in 10.0 mi Calm Calm - N/A   Overcast
5:15 AM 46.4 °F 42.8 °F 87% 30.25 in 10.0 mi Calm Calm - N/A   Overcast
5:35 AM 48.2 °F 44.6 °F 87% 30.25 in 10.0 mi Calm Calm - N/A   Overcast
5:55 AM 46.4 °F 44.6 °F 93% 30.25 in 10.0 mi Calm Calm - N/A   Mostly Cloudy
6:15 AM 46.4 °F 44.6 °F 93% 30.26 in 10.0 mi Calm Calm - N/A   Overcast
6:35 AM 48.2 °F 44.6 °F 87% 30.27 in 10.0 mi Calm Calm - N/A   Overcast
6:55 AM 48.2 °F 44.6 °F 87% 30.27 in 10.0 mi Calm Calm - N/A   Overcast
7:15 AM 50.0 °F 46.4 °F 87% 30.28 in 10.0 mi Calm Calm - N/A   Mostly Cloudy
7:35 AM 50.0 °F 46.4 °F 87% 30.28 in 10.0 mi Calm Calm - N/A   Mostly Cloudy
7:55 AM 51.8 °F 48.2 °F 88% 30.28 in 10.0 mi Calm Calm - N/A   Overcast
8:15 AM 53.6 °F 48.2 °F 82% 30.28 in 10.0 mi Calm Calm - N/A   Overcast
8:35 AM 55.4 °F 50.0 °F 82% 30.29 in 10.0 mi Calm Calm - N/A   Overcast
8:55 AM 55.4 °F 50.0 °F 82% 30.29 in 10.0 mi Calm Calm - N/A Rain Light Rain
9:15 AM 59.0 °F 50.0 °F 72% 30.30 in 10.0 mi Calm Calm - N/A   Overcast
9:35 AM 60.8 °F 50.0 °F 68% 30.30 in 10.0 mi Calm Calm - N/A   Overcast
9:55 AM 60.8 °F 50.0 °F 68% 30.29 in 10.0 mi WSW 4.6 mph - N/A   Overcast
10:15 AM 64.4 °F 50.0 °F 59% 30.28 in 10.0 mi SW 5.8 mph - N/A   Overcast
10:35 AM 66.2 °F 48.2 °F 52% 30.27 in 10.0 mi SW 9.2 mph - N/A   Overcast
10:55 AM 68.0 °F 46.4 °F 46% 30.27 in 10.0 mi SSW 4.6 mph - N/A   Overcast
11:15 AM 68.0 °F 46.4 °F 46% 30.26 in 10.0 mi SSW 11.5 mph - N/A   Overcast
11:35 AM 68.0 °F 48.2 °F 49% 30.25 in 10.0 mi WSW 9.2 mph - N/A   Overcast
11:55 AM 68.0 °F 46.4 °F 46% 30.24 in 10.0 mi SW 13.8 mph - N/A   Overcast
12:15 PM 68.0 °F 46.4 °F 46% 30.23 in 10.0 mi SW 9.2 mph - N/A   Overcast
12:35 PM 69.8 °F 46.4 °F 43% 30.22 in 10.0 mi SW 9.2 mph - N/A   Overcast
12:55 PM 69.8 °F 46.4 °F 43% 30.21 in 10.0 mi SW 11.5 mph 17.3 mph N/A   Overcast
1:15 PM 69.8 °F 46.4 °F 43% 30.20 in 10.0 mi SSW 8.1 mph - N/A   Overcast
1:35 PM 69.8 °F 48.2 °F 46% 30.19 in 10.0 mi SW 8.1 mph - N/A   Overcast
1:55 PM 69.8 °F 48.2 °F 46% 30.19 in 10.0 mi South 6.9 mph - N/A   Overcast
2:15 PM 69.8 °F 48.2 °F 46% 30.18 in 10.0 mi SSW 9.2 mph 18.4 mph N/A   Overcast
2:35 PM 69.8 °F 50.0 °F 49% 30.18 in 10.0 mi SW 8.1 mph - N/A   Overcast
2:55 PM 69.8 °F 50.0 °F 49% 30.18 in 10.0 mi SW 12.7 mph 16.1 mph N/A   Overcast
3:15 PM 69.8 °F 50.0 °F 49% 30.17 in 10.0 mi South 6.9 mph - N/A   Overcast
3:35 PM 68.0 °F 50.0 °F 52% 30.18 in 10.0 mi SSW 10.4 mph - N/A   Overcast
3:55 PM 68.0 °F 51.8 °F 56% 30.18 in 10.0 mi SSW 8.1 mph - N/A   Overcast
4:15 PM 68.0 °F 51.8 °F 56% 30.18 in 10.0 mi SSW 3.5 mph - N/A   Overcast
4:35 PM 68.0 °F 51.8 °F 56% 30.18 in 10.0 mi SSW 4.6 mph - N/A   Overcast
4:55 PM 68.0 °F 51.8 °F 56% 30.19 in 10.0 mi SSW 8.1 mph - N/A   Overcast
5:15 PM 68.0 °F 51.8 °F 56% 30.19 in 10.0 mi SSW 8.1 mph - N/A   Overcast
5:35 PM 66.2 °F 53.6 °F 64% 30.19 in 10.0 mi SSW 6.9 mph - N/A   Overcast
5:55 PM 66.2 °F 53.6 °F 64% 30.20 in 10.0 mi Calm Calm - N/A   Overcast
6:15 PM 64.4 °F 53.6 °F 68% 30.20 in 10.0 mi Calm Calm - N/A   Overcast
6:35 PM 64.4 °F 53.6 °F 68% 30.21 in 10.0 mi SSW 4.6 mph - N/A   Overcast
6:55 PM 62.6 °F 55.4 °F 77% 30.21 in 10.0 mi Calm Calm - 0.01 in Rain Rain
7:15 PM 60.8 °F 57.2 °F 88% 30.21 in 10.0 mi Calm Calm - 0.01 in   Light Drizzle
7:35 PM 60.8 °F 59.0 °F 94% 30.21 in 10.0 mi Calm Calm - 0.01 in Rain Light Rain
7:55 PM 60.8 °F 57.2 °F 88% 30.21 in 7.0 mi Calm Calm - 0.01 in   Overcast
8:15 PM 60.8 °F 57.2 °F 88% 30.21 in 7.0 mi Calm Calm - N/A   Overcast
8:35 PM 60.8 °F 57.2 °F 88% 30.21 in 5.0 mi Calm Calm - N/A Rain Rain
8:55 PM 60.8 °F 57.2 °F 88% 30.21 in 5.0 mi Calm Calm - N/A Rain Light Rain
9:15 PM 59.0 °F 57.2 °F 94% 30.21 in 1.5 mi Calm Calm - N/A   Mostly Cloudy
9:35 PM 59.0 °F 55.4 °F 88% 30.21 in 3.0 mi Calm Calm - N/A   Overcast
9:55 PM 59.0 °F 57.2 °F 94% 30.21 in 4.0 mi Calm Calm - N/A   Mostly Cloudy
10:15 PM 59.0 °F 55.4 °F 88% 30.20 in 1.5 mi Calm Calm - N/A   Overcast
10:35 PM 59.0 °F 55.4 °F 88% 30.19 in 2.5 mi Calm Calm - N/A   Mostly Cloudy
10:55 PM 59.0 °F 55.4 °F 88% 30.18 in 1.0 mi Calm Calm - N/A   Overcast
11:15 PM 59.0 °F 57.2 °F 94% 30.18 in 1.8 mi Calm Calm - N/A   Overcast
11:35 PM 57.2 °F 55.4 °F 94% 30.17 in 0.2 mi Calm Calm - N/A Fog Fog
11:55 PM 57.2 °F 55.4 °F 94% 30.17 in 0.2 mi Calm Calm - N/A Fog Fog